"Time","Temp","Dewpoint","Humidity","Pressure","Direction","Speed","Gust","Precip","PrecipRate"
"00:04:56","40.4","35.7","83.4","30.04","24","1.1","2.4","0.00","0.00"
"00:09:58","40.6","35.9","83.2","30.04","24","0.7","2.4","0.00","0.00"
"00:14:58","40.8","36","83.1","30.04","24","0.1","1.2","0.00","0.00"
"00:19:57","40.9","36.4","84","30.04","24","0","1.2","0.00","0.00"
"00:24:56","41","36.5","84","30.04","24","0","0","0.00","0.00"
"00:29:59","41","36.5","84","30.05","24","0","0","0.00","0.00"
"00:34:58","41.1","36.6","84","30.05","24","0","0","0.00","0.00"
"00:39:56","41.1","36.5","83.5","30.05","24","0","0","0.00","0.00"
"00:44:59","41.1","36.4","83.5","30.05","24","0","0","0.00","0.00"
"00:49:59","41","36.4","83.7","30.05","24","0","1.2","0.00","0.00"
"00:54:58","40.9","36.4","84","30.05","24","0","0","0.00","0.00"
"00:59:57","40.8","36.4","84.2","30.05","24","0","0","0.00","0.00"
"01:04:59","40.6","36.3","84.7","30.05","24","0","0","0.00","0.00"
"01:09:57","40.5","36.3","85","30.05","24","0","0","0.00","0.00"
"01:14:59","40.3","36.1","85","30.05","24","0","0","0.00","0.00"
"01:19:58","40.2","36.1","85","30.05","24","0","0","0.00","0.00"
"01:24:57","39.9","35.8","85","30.05","24","0","0","0.00","0.00"
"01:29:56","39.7","35.7","85.4","30.05","24","0","0","0.00","0.00"
"01:34:59","39.4","35.6","86","30.05","24","0.1","2.4","0.00","0.00"
"01:39:56","39.2","35.6","86.5","30.05","24","0.3","2.3","0.00","0.00"
"01:44:56","39","35.5","87","30.06","24","0","0","0.00","0.00"
"01:49:58","38.9","35.4","87","30.06","24","0","0","0.00","0.00"
"01:54:57","38.7","35.2","87","30.06","24","0","0","0.00","0.00"
"01:59:56","38.3","34.8","87","30.06","24","0","0","0.00","0.00"
"02:04:58","38.1","34.8","87.6","30.06","24","0","0","0.00","0.00"
"02:09:56","37.8","34.6","88","30.06","24","0","0","0.00","0.00"
"02:14:57","37.6","34.4","88","30.06","24","0","0","0.00","0.00"
"02:19:56","37.4","34.2","88","30.05","24","0","0","0.00","0.00"
"02:24:59","37.2","34.2","88.7","30.05","24","0","0","0.00","0.00"
"02:29:58","37.1","34.2","89.1","30.05","24","0","0","0.00","0.00"
"02:34:57","37","34.3","90","30.05","24","0","0","0.00","0.00"
"02:39:58","36.9","34.2","89.9","30.05","24","0","0","0.00","0.00"
"02:44:57","36.7","33.9","89.1","30.05","24","0","0","0.00","0.00"
"02:49:59","36.5","33.7","89.2","30.05","24","0","0","0.00","0.00"
"02:54:58","36.3","33.5","89.4","30.05","24","0","0","0.00","0.00"
"02:59:57","36.1","33.5","89.8","30.05","24","0","0","0.00","0.00"
"03:04:59","36","33.4","90","30.05","24","0","0","0.00","0.00"
"03:09:57","35.9","33.4","90.5","30.05","24","0","0","0.00","0.00"
"03:14:58","35.8","33.4","90.7","30.05","24","0","0","0.00","0.00"
"03:19:57","35.7","33.3","91","30.05","24","0","0","0.00","0.00"
"03:24:56","35.6","33.2","91","30.05","24","0","0","0.00","0.00"
"03:29:59","35.4","33","91","30.06","24","0.6","2.4","0.00","0.00"
"03:34:58","35.4","33.1","91.3","30.06","24","0.4","2.4","0.00","0.00"
"03:39:58","35.6","33.5","92","30.06","24","1.3","2.4","0.00","0.00"
"03:44:58","35.5","33.2","91.2","30.06","24","0.6","2.4","0.00","0.00"
"03:49:56","35.5","33.1","91","30.05","24","0","0","0.00","0.00"
"03:54:56","35.4","33","91","30.05","24","0","0","0.00","0.00"
"03:59:59","35.3","32.9","91","30.05","24","0","0","0.00","0.00"
"04:04:57","35.2","32.8","91","30.05","24","0","0","0.00","0.00"
"04:09:59","35","32.6","91","30.05","24","0","0","0.00","0.00"
"04:14:56","34.9","32.5","91","30.05","24","0","0","0.00","0.00"
"04:19:59","34.6","32.2","91","30.05","24","0","0","0.00","0.00"
"04:24:54","34.6","32.4","91.5","30.05","24","0","0","0.00","0.00"
"04:29:57","34.6","32.5","92","30.06","24","0","0","0.00","0.00"
"04:34:56","34.6","32.5","92","30.06","24","0","0","0.00","0.00"
"04:39:57","34.5","32.4","92","30.06","24","0","0","0.00","0.00"
"04:44:56","34.3","32.1","91.7","30.07","24","0","0","0.00","0.00"
"04:49:58","34.2","31.9","91.6","30.07","24","0","0","0.00","0.00"
"04:54:57","34.1","32","92","30.07","24","0","0","0.00","0.00"
"04:59:59","34.2","32.3","92.6","30.08","24","0","0","0.00","0.00"
"05:04:57","34.2","32.3","92.5","30.08","24","0","0","0.00","0.00"
"05:09:59","34.2","32.1","92.2","30.08","24","0","0","0.00","0.00"
"05:14:56","34.2","32.2","92.5","30.08","24","0","0","0.00","0.00"
"05:19:59","34.1","32","92.2","30.08","24","0","0","0.00","0.00"
"05:24:58","33.9","31.8","92","30.08","24","0","0","0.00","0.00"
"05:29:57","33.7","31.6","92","30.09","24","0.2","2.4","0.00","0.00"
"05:34:56","33.6","31.5","92","30.09","24","0","1.2","0.00","0.00"
"05:39:57","33.5","31.4","92","30.09","24","0","0","0.00","0.00"
"05:44:56","33.4","31.3","92","30.10","24","0","0","0.00","0.00"
"05:49:59","33.3","31.4","92.7","30.10","24","0","0","0.00","0.00"
"05:54:58","33.3","31.5","93","30.10","24","0","0","0.00","0.00"
"05:59:56","33.5","31.7","93","30.10","24","0","0","0.00","0.00"
"06:04:58","33.5","31.7","93","30.10","24","0","0","0.00","0.00"
"06:09:57","33.5","31.7","93","30.10","24","0","0","0.00","0.00"
"06:14:58","33.4","31.6","93","30.11","24","0","0","0.00","0.00"
"06:19:57","33.5","31.7","93","30.11","24","0","0","0.00","0.00"
"06:24:59","33.5","31.7","93","30.11","24","0","0","0.00","0.00"
"06:29:58","33.4","31.6","93","30.11","24","0","0","0.00","0.00"
"06:34:57","33.4","31.6","93","30.11","24","0","0","0.00","0.00"
"06:39:58","33.3","31.5","93","30.11","24","0","0","0.00","0.00"
"06:44:57","33.2","31.4","93","30.12","24","0","0","0.00","0.00"
"06:49:56","33.1","31.3","93","30.12","24","0","0","0.00","0.00"
"06:54:59","33","31.2","93","30.12","24","0","0","0.00","0.00"
"06:59:58","33.1","31.5","93.7","30.12","24","0","0","0.00","0.00"
"07:04:56","33.1","31.6","94","30.12","24","0","0","0.00","0.00"
"07:09:58","33.2","31.7","94","30.12","24","0","0","0.00","0.00"
"07:14:59","33.1","31.6","93.7","30.13","24","0","0","0.00","0.00"
"07:19:58","33.1","31.6","93.8","30.13","24","0","0","0.00","0.00"
"07:24:57","33.1","31.3","93","30.13","24","0","0","0.00","0.00"
"07:29:56","33","31.2","93","30.13","24","0","0","0.00","0.00"
"07:34:59","33","31.3","93.3","30.13","24","0","0","0.00","0.00"
"07:39:56","33","31.4","93.5","30.13","24","0","0","0.00","0.00"
"07:44:56","33.2","31.7","94","30.14","24","0","0","0.00","0.00"
"07:49:59","33.4","31.9","94","30.14","24","0","0","0.00","0.00"
"07:54:58","33.5","32","94","30.14","24","0","0","0.00","0.00"
"07:59:57","33.5","31.8","93.5","30.14","24","0","0","0.00","0.00"
"08:04:58","33.5","32","94","30.14","24","0","0","0.00","0.00"
"08:09:56","33.7","32.2","94","30.14","24","0","0","0.00","0.00"
"08:14:57","33.8","32.3","94","30.15","24","0","0","0.00","0.00"
"08:19:59","34","32.5","94","30.15","24","0","0","0.00","0.00"
"08:24:58","34.1","32.6","94","30.15","24","0","0","0.00","0.00"
"08:29:57","34.3","32.8","94","30.15","24","0","0","0.00","0.00"
"08:34:57","34.6","33.1","94","30.15","24","0","0","0.00","0.00"
"08:39:58","35","33.6","94.7","30.15","24","0","0","0.00","0.00"
"08:44:57","35.8","34.6","95.3","30.16","24","0","0","0.00","0.00"
"08:49:59","37","35.6","94.7","30.16","24","0","0","0.00","0.00"
"08:54:58","38.1","36.3","93.2","30.16","24","0","0","0.00","0.00"
"08:59:56","39.2","36.9","91.4","30.16","24","0","0","0.00","0.00"
"09:04:58","40.6","37.9","89.9","30.16","24","0","0","0.00","0.00"
"09:09:56","42.2","38.7","87.5","30.16","24","0","0","0.00","0.00"
"09:14:57","43.3","38.7","83.9","30.17","24","0","0","0.00","0.00"
"09:19:59","44","38.4","80.7","30.17","24","0","0","0.00","0.00"
"09:24:58","44.8","38.9","79.7","30.17","35","0","0","0.00","0.00"
"09:29:56","45.6","39.5","78.9","30.17","35","0","0","0.00","0.00"
"09:34:58","46.7","39.8","77","30.17","35","0","0","0.00","0.00"
"09:39:59","47.7","39.9","74.2","30.17","35","0","0","0.00","0.00"
"09:44:57","48.3","39.4","71.2","30.17","35","0","0","0.00","0.00"
"09:49:56","48.9","39.9","70.9","30.17","35","0","0","0.00","0.00"
"09:54:58","49.5","40.1","70","30.17","35","0","0","0.00","0.00"
"09:59:57","50.2","39.4","66.1","30.17","34","0.4","3.6","0.00","0.00"
"10:04:58","50.9","39.5","64.8","30.17","34","0.3","2.4","0.00","0.00"
"10:09:56","51.6","39.6","63.7","30.17","34","0.2","2.3","0.00","0.00"
"10:14:56","52.7","40.3","62.7","30.18","34","0.4","2.4","0.00","0.00"
"10:19:59","53.6","40.7","61.5","30.18","34","0.1","1.2","0.00","0.00"
"10:24:57","54.5","40.7","59.5","30.18","34","1","2.4","0.00","0.00"
"10:29:59","55.1","40","56.8","30.18","34","0.9","2.4","0.00","0.00"
"10:34:59","55.6","41.1","58.2","30.18","34","0.2","2.4","0.00","0.00"
"10:39:56","56","41","57","30.18","34","0.5","2.4","0.00","0.00"
"10:44:58","56.3","40.6","55.5","30.18","34","0.1","1.2","0.00","0.00"
"10:49:56","56.8","41.5","56.7","30.18","34","0.2","2.4","0.00","0.00"
"10:54:59","57.7","42","55.8","30.18","34","0.5","2.4","0.00","0.00"
"10:59:57","58.1","40.9","52.9","30.18","34","0.5","3.6","0.00","0.00"
"11:04:59","58.4","38.7","47.9","30.18","34","0.9","3.6","0.00","0.00"
"11:09:57","58.8","40.1","49.9","30.18","34","0.2","2.4","0.00","0.00"
"11:14:57","59.4","40","48.7","30.18","34","0.7","2.4","0.00","0.00"
"11:19:59","59.9","39.5","46.8","30.18","110","1.3","4.8","0.00","0.00"
"11:24:58","60.2","39.3","45.9","30.18","124","1.9","4.8","0.00","0.00"
"11:29:56","60.4","39.4","45.8","30.18","124","1.6","3.6","0.00","0.00"
"11:34:58","60.3","39.9","46.9","30.17","128","2","4.8","0.00","0.00"
"11:39:58","60.4","38","43.3","30.17","139","2.1","6","0.00","0.00"
"11:44:57","60.8","37.5","42","30.17","126","1.7","7.2","0.00","0.00"
"11:49:59","61","37.8","42.2","30.17","127","1.1","3.6","0.00","0.00"
"11:54:57","61.1","37.1","40.9","30.17","140","1.4","4.8","0.00","0.00"
"11:59:59","61.4","35.7","38.3","30.17","160","1.8","4.8","0.00","0.00"
"12:04:57","61.6","36.7","39.6","30.17","158","1.2","3.5","0.00","0.00"
"12:09:59","62","36.2","38.3","30.17","24","1.8","3.6","0.00","0.00"
"12:14:59","62","35.2","36.7","30.17","359","2.3","4.8","0.00","0.00"
"12:19:57","62.1","37.5","40.1","30.17","355","1.2","2.4","0.00","0.00"
"12:24:59","62.6","37.4","39.3","30.17","304","2.2","4.8","0.00","0.00"
"12:29:57","62.8","35.7","36.4","30.17","232","2.1","3.6","0.00","0.00"
"12:34:59","63.1","36.7","37.5","30.17","146","1.9","6","0.00","0.00"
"12:39:56","63.2","34.6","34.5","30.17","107","2.4","6","0.00","0.00"
"12:44:58","63.2","38","39.4","30.17","84","1","4.8","0.00","0.00"
"12:49:57","63.6","35.2","34.8","30.17","182","1.9","4.8","0.00","0.00"
"12:54:59","63.8","36.1","35.7","30.17","179","2.3","6","0.00","0.00"
"12:59:57","63.9","34.8","33.8","30.17","187","1.7","6","0.00","0.00"
"13:04:58","63.8","35.7","35.2","30.16","189","1.9","5.8","0.00","0.00"
"13:09:56","64.1","36.2","35.5","30.16","200","2.8","4.8","0.00","0.00"
"13:14:57","64.1","35.8","34.9","30.16","298","1.7","4.6","0.00","0.00"
"13:19:59","64.3","36.5","35.6","30.15","199","2.2","6","0.00","0.00"
"13:24:57","64.6","36.1","34.8","30.15","213","2.8","5.8","0.00","0.00"
"13:29:59","64.9","37.2","35.8","30.15","216","2.8","7.2","0.00","0.00"
"13:34:57","64.9","36.1","34.4","30.15","214","4.2","8.4","0.00","0.00"
"13:39:57","64.9","38.3","37.4","30.15","217","2.2","6","0.00","0.00"
"13:44:56","65.2","35.9","33.8","30.15","181","2.8","7.2","0.00","0.00"
"13:49:58","65.1","36.7","34.9","30.14","175","2.8","6","0.00","0.00"
"13:54:56","65.3","36.6","34.6","30.14","178","1.8","3.6","0.00","0.00"
"13:59:59","65.4","34.3","31.4","30.14","179","1.3","3.5","0.00","0.00"
"14:04:56","65.5","36.9","34.7","30.13","179","1","4.8","0.00","0.00"
"14:09:58","65.9","34.3","30.8","30.13","167","3.7","8.4","0.00","0.00"
"14:14:58","65.9","34.4","31.1","30.13","167","2.3","9.6","0.00","0.00"
"14:19:56","65.8","34.2","30.8","30.13","192","3.3","8.4","0.00","0.00"
"14:24:58","65.8","34.3","31","30.13","242","4","8.1","0.00","0.00"
"14:29:56","65.9","35.7","32.6","30.13","212","2.7","6","0.00","0.00"
"14:34:57","66.1","35","31.6","30.12","161","3.9","7.2","0.00","0.00"
"14:39:57","66.2","36.1","32.8","30.12","208","2.6","8.4","0.00","0.00"
"14:44:59","66.4","37.9","35","30.12","208","1.1","3.6","0.00","0.00"
"14:49:58","66.9","36","32","30.12","179","2.9","7.2","0.00","0.00"
"14:54:56","67","35.2","30.8","30.12","200","4.1","7.2","0.00","0.00"
"14:59:59","66.7","34.7","30.6","30.12","198","2.8","6","0.00","0.00"
"15:04:57","66.5","35.4","31.7","30.12","197","0.8","3.6","0.00","0.00"
"15:09:59","66.6","36.6","32.9","30.12","187","2.6","6","0.00","0.00"
"15:14:59","66.8","35.3","31.2","30.12","188","2.7","4.8","0.00","0.00"
"15:19:57","66.8","35.7","31.6","30.11","162","3.5","8.4","0.00","0.00"
"15:24:59","66.6","35","31","30.11","182","3.1","6","0.00","0.00"
"15:28:59","66.7","35.6","31.7","30.11","207","2.5","7.2","0.00","0.00"
"15:34:57","66.8","36.6","32.7","30.11","202","3.5","6","0.00","0.00"
"15:39:57","66.8","35.5","31.5","30.11","201","2.5","4.8","0.00","0.00"
"15:44:56","66.9","37.9","34.4","30.11","200","0.9","2.4","0.00","0.00"
"15:49:58","66.6","36.8","33.3","30.11","134","2.3","7.2","0.00","0.00"
"15:54:57","66.2","37","34","30.11","171","3.1","7.2","0.00","0.00"
"15:59:59","66.4","36.1","32.6","30.11","204","3.3","7.2","0.00","0.00"
"16:04:57","66.4","36.3","32.8","30.11","216","4.3","8.4","0.00","0.00"
"16:09:59","66.5","36.2","32.7","30.11","213","3","6","0.00","0.00"
"16:14:59","66.8","37.5","34","30.11","178","2.2","4.8","0.00","0.00"
"16:19:58","66.8","36.8","33.1","30.11","145","1","4.8","0.00","0.00"
"16:24:56","67","36.7","32.8","30.11","209","3.2","7.2","0.00","0.00"
"16:29:58","67","37","33.1","30.11","199","3.2","7.2","0.00","0.00"
"16:34:57","67.1","36.7","32.6","30.11","155","2.4","6.9","0.00","0.00"
"16:39:57","67","36.9","33.1","30.11","157","2.4","4.8","0.00","0.00"
"16:44:56","66.8","36","32","30.11","143","3.5","7.2","0.00","0.00"
"16:49:58","66.3","36.4","33.2","30.11","139","2.6","5.8","0.00","0.00"
"16:54:57","66.2","35.7","32.3","30.11","150","2.9","6","0.00","0.00"
"16:59:59","66.4","36.2","32.8","30.11","153","2.4","6","0.00","0.00"
"17:04:57","66.4","36.1","32.6","30.11","141","1.8","6","0.00","0.00"
"17:09:59","66.3","35.7","32.2","30.11","145","2.4","6","0.00","0.00"
"17:14:59","66","36.1","33","30.11","184","2.1","3.6","0.00","0.00"
"17:19:53","65.8","36.5","33.9","30.11","168","2","4.8","0.00","0.00"
"17:24:59","65.6","36.2","33.7","30.11","149","2.1","4.6","0.00","0.00"
"17:29:58","65.1","35.2","32.8","30.11","125","2.9","6","0.00","0.00"
"17:34:56","64.4","35.5","34.1","30.11","117","2.5","4.8","0.00","0.00"
"17:39:56","63.8","34.9","34","30.11","120","2.1","6","0.00","0.00"
"17:44:58","63.5","34.9","34.5","30.11","121","1.5","3.6","0.00","0.00"
"17:49:56","63.2","35.3","35.3","30.11","123","0.9","3.5","0.00","0.00"
"17:54:59","62.9","35.6","36.2","30.11","123","0.7","3.6","0.00","0.00"
"17:59:57","62.6","35.4","36.2","30.12","123","0.7","3.5","0.00","0.00"
"18:04:59","62.4","36","37.4","30.12","123","0.5","2.3","0.00","0.00"
"18:09:57","61.9","36.4","38.5","30.12","123","0.4","2.4","0.00","0.00"
"18:14:58","61.3","36.3","39.2","30.12","123","0.4","2.4","0.00","0.00"
"18:19:56","60.6","36.4","40.5","30.11","123","0.3","2.3","0.00","0.00"
"18:24:59","59.8","35.8","40.7","30.11","123","0.6","2.4","0.00","0.00"
"18:29:57","59.3","35.6","41","30.12","123","0.9","2.4","0.00","0.00"
"18:34:56","59","35.4","41.2","30.12","123","0.3","2.3","0.00","0.00"
"18:39:57","58.7","36.4","43.4","30.12","123","0.3","2.4","0.00","0.00"
"18:44:59","58.1","36.7","44.7","30.12","123","0.2","1.2","0.00","0.00"
"18:49:58","57.4","36.3","45.2","30.12","123","0","1.2","0.00","0.00"
"18:54:56","56.9","36.5","46.3","30.12","123","0.5","2.4","0.00","0.00"
"18:59:59","56.4","36.6","47.4","30.13","123","0.1","1.2","0.00","0.00"
"19:04:56","56","36.1","47.2","30.13","123","0.4","3.6","0.00","0.00"
"19:09:58","55.8","36.3","47.8","30.13","123","0.3","3.5","0.00","0.00"
"19:14:59","55.5","36.5","48.7","30.13","123","0.2","2.3","0.00","0.00"
"19:19:57","55.1","37.8","51.9","30.13","123","0.1","1.2","0.00","0.00"
"19:24:56","54.5","38.2","53.9","30.13","123","0","0","0.00","0.00"
"19:29:59","53.9","38.1","55.2","30.13","123","0.1","1.2","0.00","0.00"
"19:34:57","53.2","38.2","56.6","30.13","123","0.3","2.4","0.00","0.00"
"19:39:57","52.5","38.7","59.3","30.13","123","0.5","2.4","0.00","0.00"
"19:44:59","51.9","38.7","60.7","30.13","123","0.2","2.3","0.00","0.00"
"19:49:58","51.2","39.2","63.4","30.13","123","0","0","0.00","0.00"
"19:54:56","50.5","39.2","64.9","30.13","123","0","0","0.00","0.00"
"19:59:59","49.9","39.2","66.5","30.14","123","0","0","0.00","0.00"
"20:04:56","49.3","39.2","68","30.14","123","0","0","0.00","0.00"
"20:09:58","48.8","39.2","69.3","30.14","123","0","0","0.00","0.00"
"20:14:59","48.4","39.2","70.3","30.14","123","0","0","0.00","0.00"
"20:19:57","48","39.1","71.4","30.14","123","0","0","0.00","0.00"
"20:24:56","47.6","39","72","30.14","123","0","0","0.00","0.00"
"20:29:59","47.3","39.1","73","30.15","123","0","0","0.00","0.00"
"20:34:57","47","39","73.7","30.15","123","0","0","0.00","0.00"
"20:39:58","46.6","38.8","74","30.15","123","0","0","0.00","0.00"
"20:44:56","46.3","38.8","75","30.15","123","0","0","0.00","0.00"
"20:49:59","46","38.5","75","30.15","123","0","0","0.00","0.00"
"20:54:57","45.6","38.1","75","30.15","123","0","0","0.00","0.00"
"20:59:58","45.2","38.1","75.9","30.16","123","0","0","0.00","0.00"
"21:04:56","45","38","76.5","30.16","123","0","1.2","0.00","0.00"
"21:09:58","44.8","38.4","78.4","30.16","123","0.4","2.4","0.00","0.00"
"21:14:58","44.7","38.8","79.7","30.16","123","0.7","2.4","0.00","0.00"
"21:19:56","44.6","38.7","79.5","30.16","123","0","1.2","0.00","0.00"
"21:24:59","44.5","38.4","79","30.16","123","0","0","0.00","0.00"
"21:29:57","44.3","38.2","79.2","30.16","123","0","0","0.00","0.00"
"21:34:59","44","38.2","80","30.16","123","0","0","0.00","0.00"
"21:39:56","43.7","37.9","80","30.16","123","0","0","0.00","0.00"
"21:44:59","43.5","37.7","80","30.16","123","0.1","1.2","0.00","0.00"
"21:49:57","43.3","37.5","80","30.16","123","0","0","0.00","0.00"
"21:54:55","43.1","37.3","80","30.16","123","0","0","0.00","0.00"
"21:59:58","43.1","37.6","80.8","30.16","123","0.1","1.2","0.00","0.00"
"22:04:59","43.3","37.9","81","30.16","123","0.5","2.4","0.00","0.00"
"22:09:57","43.3","38","81.4","30.16","123","0","0","0.00","0.00"
"22:14:57","43.2","38.1","82","30.17","123","0.8","2.4","0.00","0.00"
"22:19:56","43.1","37.9","81.7","30.17","123","1.1","2.4","0.00","0.00"
"22:24:58","43","37.9","82","30.17","123","0","1.2","0.00","0.00"
"22:29:56","42.8","37.7","82","30.17","123","0","0","0.00","0.00"
"22:34:58","42.6","37.6","82.4","30.17","123","0.3","2.4","0.00","0.00"
"22:39:58","42.4","37.6","83","30.17","123","0.1","2.3","0.00","0.00"
"22:44:44","42.2","37.4","83","30.17","123","0.2","2.4","0.00","0.00"
"22:49:58","42.1","37.6","84","30.17","123","0.6","2.4","0.00","0.00"
"22:54:57","42.1","37.6","84","30.17","123","0.3","1.2","0.00","0.00"
"22:59:59","42.1","37.6","84","30.17","123","0.2","2.4","0.00","0.00"
"23:04:56","41.9","37.4","84","30.17","123","0","1.2","0.00","0.00"
"23:09:58","41.9","37.4","84","30.17","123","0","0","0.00","0.00"
"23:14:59","41.8","37.3","84","30.18","123","0.3","2.4","0.00","0.00"
"23:19:57","41.7","37.2","84","30.18","123","0","0","0.00","0.00"
"23:24:59","41.6","37.1","84","30.18","123","0","0","0.00","0.00"
"23:29:57","41.5","37.3","84.8","30.18","123","0.3","2.4","0.00","0.00"
"23:34:59","41.4","37.2","85","30.18","123","0.2","2.4","0.00","0.00"
"23:39:56","41.3","37.1","85","30.18","123","0.1","1.2","0.00","0.00"
"23:44:58","41.3","37.1","85","30.18","123","0","0","0.00","0.00"
"23:49:57","41.2","37","85","30.18","123","0","1.2","0.00","0.00"
"23:54:59","41.1","37.2","85.9","30.18","123","0.1","1.2","0.00","0.00"
